Dewpoint
72 72 74 74 75 75 75 75 75 75 75 74 74 74 74 74 74 74 74 74 74 74 74 73 73 73 73 73 73 73 73 73 73 73 72 72 71 71 70 69 69 69 69 70 71 71 70 69 69 68 68 68 68 69 69 69 69 68 68 68 68 68 68 67 67 67 67 68 67 67 67 66 69 69 69 69 70 69 69 69 68 67 67 67 67
71 73 73 74 74 75 75 75 75 75 75 75 74 74 74 74 74 74 74 74 74 74 73 73 74 73 73 73 73 73 72 72 73 73 72 72 72 70 69 68 68 69 69 69 70 70 69 68 68 68 68 68 67 67 68 68 68 67 68 69 68 68 68 68 68 68 68 67 68 67 67 68 68 68 68 69 69 69 69 68 68 67 67 68 68
72 72 73 74 74 75 75 75 75 75 74 74 74 74 74 74 75 74 74 74 74 74 74 73 73 73 73 73 72 73 73 73 73 72 72 71 71 69 69 68 68 69 69 69 70 70 70 69 69 69 69 69 68 68 69 68 68 67 67 68 68 68 68 68 68 68 67 67 68 69 69 68 67 68 67 68 69 69 69 68 68 67 65 67 67
71 72 73 74 75 74 74 75 75 75 74 74 74 74 74 74 74 74 74 74 74 74 74 73 73 73 73 73 73 73 72 72 72 72 71 71 70 69 69 69 68 69 69 69 69 69 69 69 69 69 69 69 69 69 68 68 68 68 68 69 68 68 68 68 68 68 67 68 68 67 68 66 66 67 67 68 68 68 68 68 67 67 66 67 66
71 72 73 73 74 74 74 74 74 75 74 74 74 74 74 74 74 74 74 74 74 74 73 73 73 73 73 72 72 72 72 72 71 71 71 71 71 69 69 69 68 69 69 70 69 68 68 68 69 69 68 69 69 69 69 68 68 68 68 68 68 69 68 68 68 68 67 67 67 66 65 66 66 66 67 67 67 67 67 67 66 65 65 66 66
70 71 72 73 73 74 74 74 75 75 74 74 74 74 74 74 74 74 74 74 73 73 73 73 73 73 73 72 71 71 71 71 71 71 71 70 70 69 68 68 68 69 68 69 68 68 68 68 70 69 69 69 70 69 69 68 68 68 68 67 67 68 68 68 68 68 68 68 68 68 65 66 66 66 67 67 67 66 67 67 67 66 66 66 66
69 69 70 72 73 74 74 74 75 75 74 74 74 74 74 74 74 74 74 74 73 73 73 73 73 73 72 72 71 70 70 69 71 72 72 71 71 70 68 68 68 68 68 68 68 67 67 70 69 69 71 70 69 69 69 68 68 67 67 68 68 67 67 67 68 68 67 69 66 66 65 65 65 64 66 66 65 65 65 65 65 66 67 66 65
68 68 69 71 73 74 74 74 74 75 75 74 74 74 74 74 74 74 74 73 73 73 73 73 73 73 72 71 71 70 69 69 70 71 71 71 71 72 71 68 67 66 66 66 66 66 69 69 69 69 69 69 68 69 69 68 68 69 68 68 67 67 67 67 66 67 67 66 68 65 62 64 65 64 67 67 65 66 67 67 66 66 65 64 64
66 67 69 71 73 74 74 74 74 74 75 75 74 74 74 74 74 74 74 73 73 73 73 73 73 72 72 71 71 70 69 69 69 71 72 72 72 71 71 71 72 72 72 72 72 70 69 68 68 68 68 68 69 69 69 69 69 68 68 68 68 67 67 66 66 65 66 65 65 62 64 65 65 65 66 67 66 66 67 66 65 64 64 65 65
65 67 69 71 72 74 74 74 74 74 75 74 74 74 74 74 74 74 73 73 73 73 73 73 72 72 72 71 70 70 69 69 70 71 71 71 71 71 71 71 71 71 71 71 70 70 68 68 68 68 68 68 69 69 69 69 68 68 67 68 67 67 67 67 67 65 63 63 62 63 65 66 64 64 66 66 66 67 67 66 65 63 64 64 64
66 67 69 71 72 73 73 74 74 74 74 74 74 74 74 74 74 73 73 73 73 73 73 73 72 72 72 71 70 70 69 69 70 71 71 70 71 70 70 71 71 70 70 70 70 69 69 68 69 69 70 70 69 69 69 69 68 68 68 68 68 68 68 68 68 62 63 64 64 65 66 66 63 64 66 65 66 66 66 65 64 64 64 63 63
66 67 69 71 73 72 73 73 74 74 74 74 74 74 74 74 74 73 73 73 73 73 73 73 72 72 72 71 71 70 70 70 71 71 70 71 70 70 69 70 70 70 70 70 70 70 70 70 69 69 69 69 69 69 69 69 68 68 68 68 68 67 67 67 65 64 64 64 64 64 64 64 64 64 65 65 65 65 64 64 64 64 64 64 63
67 68 70 71 71 72 73 73 74 74 74 74 74 74 74 73 73 73 73 72 73 73 73 72 72 72 72 72 71 71 71 71 71 71 70 71 70 70 70 69 69 69 69 70 70 70 70 70 69 69 69 69 68 68 68 68 68 67 67 68 68 67 67 67 64 64 63 63 63 63 63 64 64 65 65 65 64 64 64 64 63 63 63 63 63
68 69 70 70 71 73 72 73 73 74 74 74 74 73 73 73 73 73 73 72 72 72 72 72 72 72 72 72 72 72 71 72 71 71 70 70 70 70 70 68 68 68 68 69 69 70 69 69 69 69 68 68 67 67 68 68 68 68 67 68 67 67 67 66 66 64 63 63 64 64 64 65 63 65 64 64 63 63 63 64 63 64 63 63 62
68 68 69 70 72 72 73 73 73 73 73 73 73 73 73 73 72 72 72 73 73 72 72 73 72 72 73 72 72 72 71 72 71 70 71 71 71 70 70 69 69 69 68 69 69 69 69 69 68 68 68 67 68 69 67 67 68 68 68 68 67 68 67 66 64 64 64 64 65 65 64 64 67 66 64 63 63 63 63 63 63 63 63 63 63
67 68 69 70 71 72 72 74 73 73 73 73 73 73 73 73 72 73 72 73 72 72 72 72 72 73 72 72 72 72 72 72 72 71 71 71 71 70 69 69 68 70 69 69 69 68 68 68 68 68 68 68 68 67 67 67 69 68 69 69 68 68 68 68 66 64 64 64 64 65 65 66 67 66 63 62 63 63 63 64 63 63 62 62 63
67 68 69 69 71 71 72 73 73 73 73 73 73 73 73 72 72 73 73 73 73 73 73 72 72 72 72 72 72 71 71 72 72 71 71 71 70 70 70 69 69 70 69 69 69 68 68 68 68 68 68 68 68 69 68 68 69 69 69 69 69 68 69 69 66 64 64 64 64 65 65 65 66 65 64 63 63 63 63 63 63 63 63 62 63
68 67 68 69 70 70 72 72 72 71 72 73 73 73 72 72 72 72 72 73 72 73 72 72 72 72 72 72 72 72 71 72 71 71 71 71 71 70 70 70 70 70 70 70 69 68 68 68 68 68 68 68 68 68 69 69 69 69 69 69 69 69 69 69 67 65 65 65 64 65 65 67 67 65 64 63 62 63 63 63 63 62 62 62 63
67 67 67 68 69 69 70 71 71 70 69 69 70 72 72 72 72 72 72 72 72 73 72 72 73 72 72 72 72 72 71 72 71 71 71 71 71 70 70 70 70 70 70 69 69 68 68 68 68 68 67 68 68 69 69 69 69 69 69 69 69 69 69 69 66 63 64 64 64 65 65 67 66 65 64 63 62 62 63 63 63 62 61 61 62
67 67 68 68 69 69 70 70 70 69 68 68 69 70 73 73 73 72 72 72 73 72 72 72 72 71 71 72 72 73 72 72 72 71 71 71 71 70 70 71 71 70 70 69 69 68 68 68 68 68 68 68 68 69 69 69 69 69 69 69 69 69 68 66 65 63 63 64 65 64 66 67 66 64 64 63 62 62 62 62 62 62 62 61 62
67 67 67 68 68 69 69 70 70 70 68 68 68 69 71 73 73 73 73 73 72 71 71 71 71 69 69 69 69 69 70 70 70 69 71 70 70 71 70 70 71 70 70 70 69 69 69 69 69 69 68 68 68 69 69 69 69 69 69 69 69 68 66 66 63 65 64 65 65 64 67 67 66 65 63 63 63 62 61 61 62 62 61 61 61
65 66 67 69 70 69 69 69 69 69 68 68 69 69 71 72 72 72 72 72 72 71 70 69 71 67 68 68 68 69 69 69 69 71 69 69 70 71 70 70 70 70 70 70 69 69 69 69 69 68 68 68 68 66 66 68 68 69 69 69 67 66 65 65 64 64 64 64 65 66 68 67 66 65 64 64 63 61 61 61 61 62 61 61 61
64 65 65 67 69 68 70 70 69 68 67 68 68 68 69 70 71 71 71 72 72 71 69 70 67 66 66 67 68 68 68 69 69 69 70 70 70 71 71 70 70 70 70 70 70 69 69 69 69 69 69 69 67 64 64 64 65 67 67 66 65 65 65 64 64 64 64 65 65 68 68 67 66 65 65 64 63 62 62 61 61 61 61 61 62
64 64 63 65 67 66 67 68 70 69 67 68 68 68 68 70 70 70 70 70 69 69 68 67 67 66 65 66 67 68 67 67 69 68 68 66 66 70 71 70 71 71 70 70 70 70 69 69 69 69 69 68 65 63 63 64 63 64 65 64 64 65 64 64 63 63 64 66 65 68 68 67 66 65 64 64 63 63 62 61 61 61 61 61 61
64 65 66 65 67 67 67 67 69 69 69 67 67 68 69 70 69 69 69 69 68 66 66 66 67 68 66 66 68 67 67 67 67 66 66 65 66 67 69 69 69 69 70 69 69 69 68 68 68 68 66 65 63 61 61 62 62 63 64 64 64 64 64 63 63 63 64 65 66 68 68 67 67 64 63 63 63 63 63 61 60 61 61 61 61
64 64 65 65 66 65 68 68 67 67 69 69 69 69 70 70 69 69 68 66 66 67 67 65 65 66 68 68 68 67 66 67 65 65 66 66 66 67 68 68 67 68 69 67 67 67 67 66 67 67 65 63 62 60 59 61 61 62 61 63 63 63 64 63 63 64 65 66 67 68 67 67 66 64 63 63 63 63 63 62 61 61 62 62 61
64 65 64 64 65 64 65 65 67 68 66 69 70 70 70 69 69 69 67 65 66 66 65 65 65 66 67 68 66 66 66 66 64 64 65 65 64 66 68 65 67 66 67 66 66 67 67 65 66 65 64 62 60 59 60 61 60 60 60 61 63 62 64 63 63 64 65 66 67 67 67 66 65 64 63 63 62 62 63 63 61 61 61 61 61
64 64 63 62 64 63 66 66 67 67 65 66 68 69 68 68 68 71 67 67 65 65 65 65 66 66 67 67 69 66 67 66 64 64 66 66 65 66 67 66 66 66 66 66 66 65 66 64 65 64 61 61 61 60 60 59 61 61 62 61 63 61 63 63 63 63 65 66 66 67 67 66 65 66 64 63 63 62 63 63 64 62 61 61 60
64 64 63 61 61 63 64 65 65 66 66 67 68 69 68 67 67 67 67 66 62 64 64 64 65 66 66 66 67 66 67 67 65 65 64 65 65 66 65 65 65 66 66 65 65 64 64 65 64 64 62 62 64 63 62 60 60 61 59 59 61 61 61 63 64 64 64 65 66 67 67 67 66 66 65 64 63 63 63 64 64 63 61 61 61
63 63 62 59 60 62 63 63 65 64 65 65 67 68 68 67 67 68 69 67 64 63 64 65 66 66 65 65 66 67 67 67 66 66 64 64 65 65 65 64 64 66 66 65 65 64 63 66 64 64 61 62 62 62 63 62 59 59 57 57 58 59 63 62 64 64 64 65 66 66 68 67 66 66 66 65 64 64 64 64 64 64 62 61 61
62 61 61 59 60 57 61 60 62 66 63 63 66 67 67 67 68 66 66 66 67 66 66 65 64 66 65 66 66 66 67 66 65 65 65 65 66 64 64 65 65 65 65 64 65 64 65 65 63 62 61 60 62 62 61 61 60 60 59 58 58 59 60 61 62 64 64 64 65 66 67 67 67 67 66 66 66 64 64 64 65 64 63 62 61
60 59 59 57 55 56 56 58 60 62 60 64 67 65 65 66 67 64 64 66 66 65 65 65 66 65 66 66 65 66 66 66 65 64 64 65 65 65 65 66 66 67 66 64 64 64 66 63 63 62 62 62 61 61 62 62 61 61 61 61 61 61 61 61 59 63 64 64 64 66 66 66 67 67 67 66 66 67 65 65 65 64 64 63 63
57 57 56 59 58 56 55 57 58 58 55 56 57 59 58 60 64 63 65 65 65 64 65 64 64 65 65 66 65 66 65 64 64 64 65 64 64 65 64 65 66 67 66 64 63 65 64 61 61 61 62 62 61 61 61 61 61 62 62 62 62 62 62 61 61 61 62 64 63 64 66 66 66 67 67 67 67 67 67 66 65 65 64 63 63
57 55 55 60 62 60 59 59 57 57 57 56 55 54 56 58 62 65 68 65 65 65 67 66 65 65 64 65 64 65 65 65 65 65 65 63 63 63 63 64 65 65 64 63 63 65 63 62 62 62 64 62 62 61 62 62 63 64 64 63 64 63 63 62 62 62 61 62 63 63 64 65 66 66 66 68 67 67 66 67 66 65 65 64 63
55 54 55 60 60 60 59 57 57 57 57 58 58 57 56 55 57 61 64 66 65 65 65 64 65 65 64 65 65 66 65 65 65 64 64 64 64 64 63 64 65 64 64 63 63 64 64 64 62 62 62 63 63 63 64 64 62 63 63 64 64 64 63 63 63 62 62 62 61 64 63 63 64 65 65 66 67 67 66 67 68 67 66 65 64
54 54 58 60 59 60 60 60 60 59 57 57 56 58 57 56 59 63 60 62 63 64 64 64 65 65 66 65 65 65 65 65 65 64 63 64 65 65 65 66 66 64 63 64 63 63 63 63 63 62 61 62 63 62 61 62 62 61 63 63 64 63 63 63 63 63 62 62 61 61 63 63 63 63 65 65 66 66 66 66 67 67 67 67 65
54 54 58 59 60 61 61 60 57 58 57 57 58 58 57 55 56 56 54 60 61 63 63 64 65 66 65 65 65 66 65 65 64 65 63 64 64 64 64 64 64 64 62 63 63 63 62 62 62 62 61 62 63 62 61 63 64 64 64 65 65 63 62 62 63 63 63 62 61 61 60 61 64 65 64 64 65 65 66 66 67 66 66 66 66
54 54 59 59 61 60 60 60 60 58 58 58 56 57 57 57 55 57 62 56 61 62 63 64 64 65 65 65 65 66 67 66 66 65 64 64 64 65 66 65 65 64 64 63 63 63 62 62 61 61 62 62 62 62 62 62 63 64 63 64 64 63 63 62 63 64 62 62 61 60 60 60 60 62 63 62 63 64 65 66 66 66 66 65 66
54 54 59 59 61 62 62 62 59 59 58 57 59 58 58 55 52 50 50 55 56 60 62 62 62 62 64 63 63 63 65 65 65 64 63 65 65 65 65 65 64 63 64 64 62 62 61 61 61 61 62 63 63 62 62 63 63 63 62 62 62 63 64 64 62 62 62 62 62 61 60 60 61 61 61 63 62 62 63 65 65 66 66 66 66
54 56 60 60 61 62 61 59 58 57 56 57 54 52 53 47 47 52 52 54 55 57 56 57 57 58 62 63 62 63 64 64 64 63 63 64 64 64 64 64 64 64 63 63 62 61 61 61 60 62 62 63 64 63 63 62 61 60 60 61 62 62 62 62 62 62 62 63 62 61 61 61 61 61 62 61 63 63 63 63 65 65 65 65 66
54 56 59 60 61 60 59 57 57 57 56 56 52 51 52 52 55 50 49 52 54 54 54 55 55 54 55 57 61 62 63 62 64 63 62 64 63 64 64 64 64 63 63 62 62 62 62 61 62 61 62 62 62 62 62 62 60 59 60 60 60 61 61 60 60 61 61 61 61 61 61 61 60 61 62 62 61 62 64 64 63 64 64 64 65
55 57 58 60 60 60 58 57 57 56 56 55 55 52 56 52 53 49 48 51 52 52 52 51 51 54 55 57 57 55 53 52 58 62 61 62 63 63 63 63 63 63 63 63 63 64 62 62 62 61 62 62 61 62 62 61 59 59 58 57 58 60 61 61 60 60 61 61 61 61 60 59 58 58 61 61 62 62 61 64 64 63 63 63 63
55 57 59 60 60 60 58 57 56 55 56 55 58 56 56 55 57 51 49 50 52 52 51 51 53 54 55 55 54 52 54 53 53 58 61 61 61 62 63 63 64 63 63 62 62 61 61 61 62 60 60 62 61 61 61 60 58 58 57 56 54 54 56 59 59 60 61 60 61 62 61 59 58 57 61 62 63 63 63 61 61 63 63 63 63
56 57 59 59 60 60 57 56 55 55 56 59 56 55 55 53 52 51 50 48 49 53 52 53 52 52 52 52 53 53 54 53 53 53 53 56 58 60 62 62 63 64 63 62 61 61 61 61 61 60 60 59 60 60 60 61 59 58 54 53 53 52 52 55 57 57 60 60 61 61 62 61 60 59 61 61 64 65 64 64 61 62 62 62 61
56 56 58 59 60 60 56 54 55 55 57 58 55 53 50 49 49 50 51 50 50 51 52 51 53 55 53 53 54 54 53 53 52 51 53 51 52 54 59 60 60 62 62 62 61 61 61 62 61 60 60 59 58 58 61 62 62 60 57 54 53 52 52 53 56 56 58 60 61 61 62 62 62 62 62 61 60 64 64 64 64 64 63 63 62
55 56 58 60 60 60 57 54 55 55 54 55 54 51 49 47 46 45 45 47 49 49 49 51 53 53 52 52 51 53 54 54 55 56 56 57 53 50 52 51 53 58 61 59 61 61 61 61 61 59 60 59 58 57 58 60 62 60 59 57 56 53 53 55 54 51 56 59 59 60 60 61 62 63 62 60 59 59 63 64 64 65 65 64 63
55 57 58 59 58 59 57 56 55 52 55 56 55 54 52 49 46 45 45 47 49 50 51 53 53 53 54 54 53 54 54 52 53 53 54 54 51 51 52 51 51 54 56 55 56 55 55 57 60 61 60 60 59 57 57 57 59 59 60 60 61 59 58 55 52 54 51 54 58 58 59 61 60 60 60 60 59 59 61 64 64 65 65 65 64
56 57 57 57 57 59 58 58 54 53 56 55 55 54 51 50 47 46 48 50 53 52 51 53 54 53 52 51 52 53 55 56 53 49 50 51 49 47 45 49 51 51 52 52 54 56 56 57 58 58 56 59 58 57 56 56 56 55 57 57 58 58 58 58 57 54 53 52 53 56 59 60 60 60 61 60 60 59 60 63 64 64 65 65 65
56 55 55 56 57 59 57 57 54 53 56 54 55 54 52 51 48 48 53 53 52 52 53 53 52 52 51 53 54 54 51 50 49 49 48 49 51 48 45 42 46 49 51 50 52 53 54 54 54 53 52 52 55 57 58 56 56 54 55 56 57 56 57 57 57 56 53 52 51 52 54 58 60 61 61 60 60 60 59 58 60 63 64 64 65
55 55 55 56 58 58 57 57 54 54 55 54 55 55 52 53 51 52 52 52 52 51 51 51 52 52 53 52 50 50 51 49 48 48 50 50 49 48 49 49 47 50 51 49 49 49 49 50 52 52 51 50 51 51 50 48 47 47 52 56 56 54 53 54 54 54 55 54 51 51 49 46 45 52 59 61 61 61 60 59 58 57 60 63 63
54 54 56 56 58 59 56 56 55 54 55 52 53 54 52 52 53 51 50 50 49 50 50 51 53 53 51 49 49 51 49 49 51 50 50 50 50 52 49 48 50 53 48 44 46 47 49 49 50 50 49 49 48 47 47 48 47 46 46 47 45 45 44 44 43 46 46 45 45 45 44 43 43 44 47 52 59 60 59 58 58 57 56 57 61